Location: Campo Alegre
(10.1673°N, 67.4431°W)
Time: 04:34:48
(UTC+00:00)

Daily predictions for brighter satellites

Satellite Brightness Start Highest point End
(mag) Time Altitude Azimuth Time Altitude Azimuth Time Altitude Azimuth
SJ-6B 3.2 00:21:15 61° NW 00:21:15 61° NW 00:24:39 10° NNW
PAYLOAD B 4.1 00:26:03 51° S 00:27:31 85° WSW 00:33:02 10° NNW
Longmarch 3A Rocket 3.3 00:23:41 10° NW 00:27:03 27° NNW 00:27:03 27° NNW
Ariane H10 4.2 00:25:53 10° W 00:32:28 37° SW 00:32:28 37° SW
Delta 7925 Rocket 4.2 00:33:31 10° NW 00:39:14 57° NNE 00:39:14 57° NNE
CZ-4 R/B 3.0 00:41:44 32° WNW 00:41:44 32° WNW 00:44:17 10° NNW
DELTA 4 R/B 3.3 00:35:58 10° WSW 00:44:37 87° NNW 00:45:41 71° ENE
VEP-3 4.3 01:20:34 10° WNW 01:40:33 42° N 01:40:44 42° N
ATLAS 5 CENTAUR R/B 4.0 06:07:42 10° W 06:52:02 43° NE 06:56:07 10° ENE
CZ-3 R/B 4.0 07:32:28 57° WSW 07:40:48 83° NNW 07:52:30 10° ENE
ARIANE 5 R/B 3.6 07:55:59 42° SSE 07:55:59 42° SSE 08:13:34 10° E
MAQSAT/ARIANE V 4.4 08:00:19 35° SSE 08:00:19 35° SSE 08:18:58 10° ESE
ARIANE 5 R/B 3.9 08:05:32 36° SE 08:05:32 36° SE 08:14:14 10° ESE
ATLAS 2AS CENTAUR R/B 4.2 08:19:52 24° NNW 08:19:52 24° NNW 08:23:38 10° N
Cosmos 1943 Rocket 4.3 08:12:53 10° NNE 08:17:25 24° ENE 08:21:53 10° SE
H-2A R/B 3.0 08:16:45 10° NNE 08:21:38 45° ESE 08:24:25 24° SSE
Cosmos 1867 3.7 08:26:28 10° NNW 08:31:52 70° ENE 08:37:14 10° SSE
Cosmos 1707 4.2 08:34:23 29° ESE 08:35:15 34° E 08:38:34 10° NNE
Cosmos 2266 Rocket 3.8 08:34:27 37° S 08:37:04 82° W 08:43:10 10° N
Cosmos 1655 Rocket 4.3 08:31:01 10° S 08:37:09 64° E 08:43:16 10° NNE
Cosmos 468 4.4 08:37:08 66° SSW 08:37:55 87° W 08:43:12 10° NNE
Cosmos 1943 3.5 08:35:20 26° S 08:38:29 63° ESE 08:44:05 10° NNE
Cosmos 1048 Rocket 4.3 08:39:52 50° NW 08:39:52 50° NW 08:44:18 10° N
CRYOSAT 2 4.2 08:36:44 10° N 08:41:37 89° WSW 08:43:10 44° S
ARIANE 5 R/B 3.7 08:33:05 34° W 08:41:50 73° S 08:47:38 10° ESE
Atlas Centaur 2 1.4 08:41:59 86° SW 08:42:00 86° SSW 08:47:18 10° ESE
SL-08 ROCKET BODY 4.2 08:39:54 24° S 08:43:34 85° W 08:49:27 10° N
Ariane H10-3 4.2 08:51:47 18° S 08:51:47 18° S 08:53:52 10° SSE
SL-24 R/B - RUBIN 2 4.2 08:50:01 26° S 08:52:59 71° ESE 08:58:44 10° NNE
Cosmos 1633 Rocket 2.8 08:48:51 10° N 08:53:10 74° W 08:57:30 10° S
Cosmos 1603 4.1 08:54:51 10° S 09:00:20 60° ESE 09:05:49 10° NNE
SL-16 R/B 4.1 09:03:20 12° NW 09:03:20 12° NW 09:04:17 10° NW
Cosmos 2278 Rocket 2.3 08:56:24 10° NNW 09:01:51 50° WSW 09:07:17 10° S
Tiangong 0.1 09:00:41 12° NNW 09:02:55 25° NE 09:05:34 10° E
Cosmos 1674 3.8 09:05:15 24° NNW 09:05:15 24° NNW 09:06:57 10° NNW
Ariane H10-3 2.9 09:06:44 18° SSE 09:06:44 18° SSE 09:07:45 10° SE
ARIANE 5 R/B 2.9 09:03:53 10° NNE 09:09:03 66° ESE 09:14:09 10° S
Cosmos 1420 Rocket 3.9 09:04:31 10° NNW 09:09:48 87° WSW 09:15:06 10° SSE
Ariane H10-3 4.0 09:11:31 14° S 09:11:31 14° S 09:13:00 10° SSE
Cosmos 1461 2.6 09:08:57 10° NNW 09:12:44 86° ENE 09:16:35 10° SSE
Cosmos 2056 Rocket 3.6 09:08:22 10° N 09:13:47 83° ENE 09:19:10 10° SSE
KORONAS-FOTON 4.2 09:14:54 35° W 09:15:01 35° W 09:18:24 10° NNW
ARGOS 3.3 09:12:04 10° NNE 09:17:24 74° ESE 09:22:43 10° S
Cosmos 1553 Rocket 4.4 09:14:15 10° NNW 09:19:49 36° W 09:25:19 10° SSW
USA 267 4.3 09:16:21 10° S 09:20:58 21° SW 09:22:10 20° WSW
Cosmos 1939 Rocket 3.4 09:20:28 10° NNW 09:23:54 33° WNW 09:25:56 20° SW
Cosmos 1766 3.0 09:21:09 10° NNW 09:24:45 59° W 09:28:23 10° S
Cosmos 1624 Rocket 3.9 09:20:53 10° NNW 09:26:02 72° WSW 09:31:11 10° S
Ariane H10 3.4 09:23:33 17° W 09:29:41 47° SSW 09:32:40 10° ESE
ARIANE 5 R/B 3.8 09:28:26 10° SSW 09:30:46 18° SSE 09:35:56 10° ESE
DELTA 4 R/B -0.5 09:33:52 28° WNW 09:34:39 83° N 09:36:14 10° ESE
Aurora 2 Rocket 3.4 09:29:29 17° WSW 09:34:53 62° NNW 09:39:48 10° NE
In-Cosmos 22 4.2 09:30:27 10° SSW 09:35:37 55° W 09:40:53 10° N
NOAA 12 4.0 09:32:44 10° N 09:37:57 85° WNW 09:43:11 10° SSW
SL-08 RB Rocket 3.7 09:33:44 10° N 09:38:19 87° WNW 09:42:53 10° SSW
Cosmos 1470 Rocket 4.3 09:35:24 10° NNW 09:39:15 30° W 09:43:08 10° SSW
Ariane H10+ 3.5 09:40:15 10° SW 09:41:28 12° SSW 09:42:30 10° S
YAOGAN 11 4.1 09:40:04 10° S 09:44:26 68° WSW 09:48:52 10° NNW
ISS -3.8 09:41:29 10° SW 09:44:47 66° NW 09:48:05 10° NNE
IUS-13 SRM-1 0.9 09:44:25 10° WNW 09:46:11 65° NNE 09:48:13 10° ESE
H-2A R/B 4.2 09:45:33 10° NW 09:47:27 15° WNW 09:49:18 10° WSW
COSMO-SKYMED 1 4.1 09:43:36 10° SSE 09:47:42 42° ENE 09:51:47 10° N
USA 306 2.7 09:44:48 10° SSW 09:48:41 81° ESE 09:52:24 10° NE
Cosmos 1908 3.8 09:46:13 10° N 09:49:46 57° E 09:53:18 10° SSE
GPS 2-15 Rocket1 4.0 09:46:01 10° W 09:50:38 42° NNW 09:55:14 10° ENE
SJ-6F 4.4 09:48:07 10° NNE 09:52:06 86° E 09:56:06 10° S
Cosmos 1862 Rocket 3.6 09:48:42 10° S 09:53:09 87° E 09:57:33 10° N
Meteor 1-23 Rocket 4.4 09:49:22 10° SSW 09:54:57 52° W 10:00:28 10° N
Nadezhda 2 Rocket 4.5 09:49:34 10° SSW 09:55:36 60° W 10:01:35 10° N
Cosmos 1400 Rocket 3.2 09:56:38 10° S 10:00:21 64° E 10:04:06 10° NNE
Cosmos 1943 Rocket 3.2 09:56:24 10° NW 10:00:51 24° WSW 10:05:18 10° SSW
Meteor 1-21 4.3 09:56:21 10° S 10:02:02 84° W 10:07:38 10° N
